Flag for Germany Weather past 2 weeks in Hameln, Lower Saxony, Germany

Now
54 °F

Light rain. Partly sunny.


Feels Like: 54 °F
Forecast: 41 / 51 °F
Wind: 2 mph from Northeast

Location: Bueckeburg

Current Time: Apr 26, 2015 at 10:33:19 PM

Latest Report: Apr 26, 2015 at 9:20 PM


Visibility: 5 mi

Pressure: 29.68 "Hg

Humidity: 88%

Dew point: 50 °F

Location of HamelnLocation

Historic Weather in Hameln — Graph

°F

Hameln temperature yesterday

Maximum temperature yesterday: 59 °F (at 2:20 AM)
Minimum temperature yesterday: 54 °F (at 12:20 AM)
Average temperature yesterday: 57 °F

Past Weeks' High & Low Weather Summary

 TemperatureHumidityPressure
High73 °F (Apr 15, 3:20 PM)100% (Apr 23, 7:20 AM)30.45 "Hg (Apr 23, 7:20 AM)
Low34 °F (Apr 18, 5:20 AM)28% (Apr 21, 3:20 PM)29.65 "Hg (Apr 26, 5:20 PM)
Average51 °F67%30.13 "Hg
* Reported Apr 11 9:20 PM — Apr 26 9:20 PM, Hameln, Weather by CustomWeather, © 2015

Note: Actual official high and low records may vary slightly from our data, if they occured in-between our weather recording intervals... More about our weather records

Advertising

Hameln weather history for previous 24 hours

 ConditionsComfort  
Time TempWeatherWind HumidityBarometerVisibility
9:20 PM
Sun, Apr 26
54 °FLight rain. Partly sunny.2 mph88%29.68 "Hg5 mi
8:20 PM54 °FBroken clouds.6 mph88%29.68 "Hg5 mi
7:20 PM55 °FSprinkles. Broken clouds.7 mph88%29.68 "Hg4 mi
6:20 PM59 °FSprinkles. Broken clouds.6 mph77%29.68 "HgN/A
5:20 PM63 °FScattered clouds.8 mph59%29.65 "HgN/A
4:20 PM66 °FScattered clouds.14 mph49%29.68 "HgN/A
3:20 PM64 °FScattered clouds.14 mph56%29.68 "HgN/A
2:20 PM64 °FScattered clouds.10 mph52%29.68 "HgN/A
1:20 PM63 °FScattered clouds.15 mph59%29.71 "HgN/A
12:20 PM59 °FScattered clouds.15 mph72%29.71 "HgN/A
11:20 AM59 °FScattered clouds.12 mph77%29.71 "HgN/A
10:20 AM55 °FPartly sunny.10 mph88%29.71 "HgN/A
9:46 AM54 °FBroken clouds.8 mph94%29.71 "Hg5 mi
9:20 AM54 °FDrizzle. Broken clouds.8 mph94%29.71 "Hg4 mi
8:20 AM52 °FPartly sunny.6 mph94%29.74 "Hg5 mi
7:20 AM52 °FLight rain. Fog.7 mph94%29.74 "Hg3 mi
6:20 AM52 °FRain. Fog.8 mph94%29.74 "Hg2 mi
5:20 AM52 °FPassing clouds.7 mph88%29.71 "Hg5 mi
4:20 AM52 °FPassing clouds.7 mph88%29.74 "Hg5 mi
3:20 AM54 °FPassing clouds.7 mph88%29.74 "HgN/A
2:20 AM54 °FPassing clouds.8 mph88%29.74 "HgN/A
1:20 AM54 °FPassing clouds.8 mph88%29.74 "HgN/A
12:20 AM54 °FPassing clouds.7 mph88%29.74 "Hg5 mi
11:20 PM
Sat, Apr 25
54 °FPassing clouds.8 mph88%29.74 "Hg4 mi
10:20 PM55 °FPassing clouds.6 mph88%29.74 "Hg4 mi
Weather by CustomWeather, © 2015

See weather overviewHow to use our weather pages